FLOCK 2K-02 (42853 NORAD) Tracking and Keplerian Element Data

This shows tracking and keplerian element data for the satellite.

Feedback or suggestion? Click here.




ElementValue
Catalog42853
NameFLOCK 2K-02
Epoch Orbit3288
Epoch Day46.19892989
Epoch Year2018
RAAN308.6124
Inclination96.9931
Eccentricity0.0011188
Argument of Perigee188.9164
Mean Anonmoly171.1882
Mean Motion15.33526364
Decay Rate2.017E-05
L11 42853U 17042AE 18046.19892989 .00002017 00000-0 64385-4 0 9990
L22 42853 96.9931 308.6124 0011188 188.9164 171.1882 15.33526364 32888

Live tracking and technical data element details for FLOCK 2K-02 (NORAD 42853). FLOCK 2K-02 can be tracked NOW for your location showing map with azimuth and elevation plus other details from your city location.

Track the satellite on the map from your city or location and see movement details for azimuth, elevation, latitude, longitude, range, height, and movement on the map or in text.







IsCatalogInMostPopularTable: catalog: 42853, numindb: 74
Update: records affected: 1



GetName: 42853 FLOCK 2K-02

Hit Count: updated at: Sat, 21 Jul 2018 08:06:30 GMT